Regional Weather Roundup
Issued by NWS Newport/Morehead, NC

Current Version | Previous Version | Graphics & Text | Print | Product List | Glossary Off
Versions: 1 2 3 4 5 6 7 8 9 10 11 12 13 14 15 16 17 18 19 20 21 22 23 24 25 26 27 28 29 30 31 32 33 34 35 36 37 38 39 40 41 42 43 44 45 46 47 48 49 50

000
ASUS42 KMHX 011225
RWRMHX
WEATHER ROUNDUP FOR EASTERN NORTH CAROLINA
NATIONAL WEATHER SERVICE NEWPORT/MOREHEAD CITY NC
800 AM EDT TUE SEP 01 2015

NOTE: "FAIR" INDICATES FEW OR NO CLOUDS BELOW 12,000 FEET
WITH NO SIGNIFICANT WEATHER AND/OR OBSTRUCTIONS TO VISIBILITY

NCZ015>017-031-032-045>047-102-103-011300-
NORTH COAST

CITY           SKY/WX    TMP DP  RH WIND       PRES   REMARKS
EDENTON        PTSUNNY   71  70  98 N6        30.07R
ELIZABETH CITY PTSUNNY   75  73  93 NW5       30.06R
KITTY HAWK     MOSUNNY   77  76  95 CALM      30.04R
MANTEO         CLOUDY    76  74  93 N5        30.05R

$$

NCZ045>047-081-094-103-104-011300-
CENTRAL COAST

CITY           SKY/WX    TMP DP  RH WIND       PRES   REMARKS
FRISCO         CLOUDY    78  74  87 VRB6      30.04R
SWANQUARTER    NOT AVBL

$$

NCZ095-097-098-100-101-011300-
SOUTHERN COAST

CITY           SKY/WX    TMP DP  RH WIND       PRES   REMARKS
BEAUFORT       CLOUDY    75  75 100 NW8       30.07R
CEDAR ISLAND   NOT AVBL
JACKSONVILLE   CLOUDY    75  72  90 W6        30.08
PINEY ISLAND   CLOUDY   N/A N/A N/A NW9       30.06R FOG
WILMINGTON     CLOUDY    73  72  96 NW3       30.09R


$$

NCZ011>013-027>030-043-044-078>080-089-090>093-098-011300-
COASTAL PLAIN

CITY           SKY/WX    TMP DP  RH WIND       PRES   REMARKS
AHOSKIE        CLOUDY    70  69  98 CALM      30.09S FOG
CLINTON        CLOUDY    73  73 100 CALM      30.11R FOG
ELIZABETHTOWN  CLOUDY    71  71 100 CALM      30.11R FOG
GOLDSBORO      CLOUDY    74  72  94 NW6       30.08R
GREENVILLE     CLOUDY    72  72 100 CALM      30.10S
HAVELOCK       PTSUNNY   76  73  91 NW7       30.07R
KENANSVILLE      N/A     73  71  96 NW5       30.11R
KINSTON        PTSUNNY   73  73 100 CALM      30.10R FOG
NEW BERN       CLOUDY    76  73  91 NW6       30.08R
RICHLANDS      CLOUDY    73  70  88 CALM      30.09R
ROCKY MOUNT    CLOUDY    73  70  90 NW3       30.10R
WASHINGTON     CLOUDY    73  72  97 NW3       30.08R
WHITEVILLE     FOG       72  70  96 CALM      30.11R VSB 1

$$

AMZ130-135-150-152-154-156-158-170-250-252-270-ANZ085-086-088-633-658-670-011300-
MARINE OBSERVATIONS

STATION/POSITION TIME  TEMP    WIND        PRES    WAVE   SWELL
                       AIR SEA DIR/SP/G            HT/PER HT/PER
                 (UTC) (F)     (DEG/KT/KT) (MB)    (FT/S) (FT/S)
CHESAPEAKE LIGHT 1200   76     340/  6/  6 1018.4
64 E VA BEACH    1150   78 78   60/  6/  8 1016.8    2/ 8   2/ 8
DUCK             1200   77 78   50/  4/  5 1016.6
2 E DUCK         1111      78                N/A     2/ 8
OREGON INLET     1200   78 79  350/  5/  7 1017.1
13E OREGON INLT  1200      78                N/A     3/11   2/11
HATTERAS CG      1200   78 79  340/  8/ 10 1016.9
DIAMOND BUOY     1150   79 84   10/ 12/ 14 1016.8    3/ 7   2/ 7
CAPE LOOKOUT     1200   76     300/ 11/ 13 1017.7
BEAUFORT LAB     1200   76 78  320/  4/  8 1017.5
30 SE NEW RVR IN 1108   78 81  330/ 10/ 16 1018.2
30 SE NEW RVR IN 1125      81                N/A     4/ 6
27 SE WRIGHTSVLE 1200   74 81  320/  6/  8   N/A
5 SE WRIGHTSVLE  1108   75 81  330/ 10/ 14 1018.5
225 S CAPE HAT   1150   84 84  240/ 10/ 12 1018.5    4/ 6   3/ 6
41 SE CHARLESTON 1150   81 82  330/  4/  4 1018.8    3/ 8   3/ 8

$$



USA.gov is the U.S. government's official web portal to all federal, state and local government web resources and services.